Regional Weather Roundup
Issued by NWS

Home | Current Version | Previous Version | Text Only | Print | Product List | Glossary Off
Versions: 1 2 3 4 5 6 7 8 9 10 11 12 13 14 15 16 17 18 19 20 21 22 23 24 25 26 27 28 29 30 31 32 33 34 35 36 37 38 39 40 41 42 43 44 45 46 47 48 49 50

739
ASUS43 KMPX 011901
RWRMN
WEATHER ROUNDUP FOR MINNESOTA
NATIONAL WEATHER SERVICE TWIN CITIES/CHANHASSEN MN
100 PM CST WED MAR 01 2017


NOTE: "FAIR" INDICATES FEW OR NO CLOUDS BELOW 12,000 FEET WITH NO
SIGNIFICANT WEATHER AND/OR OBSTRUCTIONS TO VISIBILITY. N/A MEANS
CURRENT SKY AND/OR WEATHER CONDITIONS ARE NOT AVAILABLE.

MNZ060>063-068>070-012000-
   Twin Cities Metro

CITY           SKY/WX    TMP DP  RH WIND       PRES   REMARKS
TWIN CITIES    PTSUNNY   35  23  61 NW15      29.91R WCI  25
ST PAUL        PTSUNNY   35  25  66 NW13      29.92R WCI  26
CRYSTAL        MOSUNNY   35  20  54 NW12      29.90R WCI  27
BLAINE         MOSUNNY   36  25  64 NW14      29.90R
EDEN PRAIRIE   CLOUDY    34  23  64 NW13      29.90R WCI  25
$$
MNZ001>005-007-008-013>017-022>024-027-028-012000-
   Northwest Minnesota

CITY           SKY/WX    TMP DP  RH WIND       PRES   REMARKS
ROSEAU         LGT SNOW  21  16  79 W6        30.00S WCI  14
CROOKSTON      MOSUNNY   19  14  79 N17G23    30.06S WCI   4
PARK RAPIDS    CLOUDY    29  11  47 N14       29.92R WCI  18
MAHNOMEN       FLURRIES  22  17  79 NW15      29.99S WCI   9
$$
MNZ006-009>011-018-025>026-012000-
   North Central Minnesota

CITY           SKY/WX    TMP DP  RH WIND       PRES   REMARKS
BAUDETTE       LGT SNOW  18  11  74 NW13      29.97S WCI   5
BIG FORK       SUNNY     28   1  31 N5        29.91S WCI  23
LONGVILLE      MOSUNNY   27   7  43 W9        29.92S WCI  17
CRANE LAKE     SUNNY     21  -6  30 N5        29.93S WCI  15
COOK           SUNNY     27   0  31 NW5       29.89S WCI  21
WALKER         CLOUDY    27  10  50 NW9G17    29.92S WCI  17
$$
MNZ012-019>021-037-012000-
   Northeast Minnesota

CITY           SKY/WX    TMP DP  RH WIND       PRES   REMARKS
HIBBING        SUNNY     26   4  38 N6        29.87F WCI  19
$$
MNZ029>031-032-039>041-046>048-054>057-064-012000-
   West Central Minnesota

CITY           SKY/WX    TMP DP  RH WIND       PRES   REMARKS
WHEATON        PTSUNNY   27  18  69 NW17G24   30.05F WCI  14
ALEXANDRIA     PTSUNNY   31  17  56 NW16      29.95R WCI  20
ELBOW LAKE     PTSUNNY   23  19  81 W18G25    30.00S WCI   9
WADENA         CLOUDY    27  16  63 NW14      29.94R WCI  15
APPLETON       PTSUNNY   28  19  69 NW18G28   30.02R WCI  16
$$
MNZ033>034-036-042>043-049>051-058-059-012000-
   Central Minnesota

CITY           SKY/WX    TMP DP  RH WIND       PRES   REMARKS
ST CLOUD       PTSUNNY   33  24  69 NW9       29.91S WCI  25
BRAINERD       SUNNY     31  13  47 NW14      29.91S WCI  21
LONG PRAIRIE   PTSUNNY   32  19  59 W13       29.93S WCI  22
$$
MNZ037-044-045-052-053-012000-
   East Central Minnesota

CITY           SKY/WX    TMP DP  RH WIND       PRES   REMARKS
MORA           SUNNY     32  19  59 NW9       29.91S WCI  24
CAMBRIDGE      SUNNY     34  21  60 NW9       29.89R WCI  26
CLOQUET        SUNNY     27   7  43 CALM      29.87S
$$
MNZ071>073-080-081-089-090-097-098-012000-
   Southwest Minnesota

CITY           SKY/WX    TMP DP  RH WIND       PRES   REMARKS
REDWOOD FALLS  PTSUNNY   34  21  59 NW15G28   29.98R WCI  24
JACKSON        PTSUNNY   32  25  74 NW24G31   29.96S WCI  19
SLAYTON        PTSUNNY   33  24  72 NW14      29.99R WCI  23
$$
MNZ065>067-074>077-082>085-091>093-012000-
   South Central Minnesota

CITY           SKY/WX    TMP DP  RH WIND       PRES   REMARKS
ST JAMES       PTSUNNY   34  27  75 NW17      29.96S WCI  23
GLENCOE        CLOUDY    33  27  77 NW9       29.92S WCI  26
$$
MNZ078>079-086>088-094>096-012000-
   Southeast Minnesota

CITY           SKY/WX    TMP DP  RH WIND       PRES   REMARKS
RED WING       PTSUNNY   30  19  64 N7        29.88S WCI  23
AUSTIN         PTSUNNY   30  23  74 NW22      29.88R WCI  17
$$
ABBREVIATIONS USED IN REMARKS
   TC - TEMPERATURES IN CELSIUS
  WCI - WIND CHILL INDEX
   HX - HEAT INDEX
  VSB - VISIBILITY
$$




USA.gov is the U.S. government's official web portal to all federal, state and local government web resources and services.